Home > Time Zones > World Clock > Weather > Iran > Kerman > Past weeks

Flag for Iran Weather past 2 weeks in Kerman, Iran

Now
41 °F

Clear.


Feels Like: 38 °F
Forecast: 37 / 77 °F
Wind: 5 mph from East

Location: Kerman Airport

Current Time: Oct 23, 2014 at 6:20:10 AM

Latest Report: Oct 23, 2014 at 5:30 AM


Visibility: 10 mi

Pressure: 30.27 "Hg

Humidity: 39%

Dew point: 18 °F

Location of KermanLocation

Historic Weather in Kerman — Graph

°F

Kerman temperature yesterday

Maximum temperature yesterday: 79 °F (at 3:00 PM)
Minimum temperature yesterday: 54 °F (at 6:30 AM)
Average temperature yesterday: 68 °F

Past Weeks' High & Low Weather Summary

 TemperatureHumidityPressure
High84 °F (Oct 16, 2:00 PM)56% (Oct 13, 5:30 AM)30.36 "Hg (Oct 13, 5:30 AM)
Low39 °F (Oct 13, 5:30 AM)5% (Oct 14, 11:00 AM)30.04 "Hg (Oct 18, 3:00 PM)
Average67 °F22%30.21 "Hg
* Reported Oct 8 5:30 AM — Oct 23 5:30 AM, Kerman, Weather by CustomWeather, © 2014

Note: Actual official high and low records may vary slightly from our data, if they occured in-between our weather recording intervals... More about our weather records

Advertising

Kerman weather history for previous 24 hours

 ConditionsComfort  
Time TempWeatherWind HumidityBarometerVisibility
5:30 AM
Oct 23
41 °FClear.5 mph39%30.27 "Hg10 mi
4:30 AM43 °FClear.7 mph36%30.24 "Hg10 mi
3:30 AM45 °FClear.7 mph34%30.24 "Hg10 mi
2:30 AM45 °FClear.7 mph37%30.24 "Hg10 mi
1:30 AM48 °FClear.5 mph29%30.24 "Hg10 mi
12:30 AM50 °FClear.5 mph28%30.24 "Hg10 mi
11:30 PM
Oct 22
54 °FClear.5 mph26%30.21 "Hg10 mi
10:30 PM57 °FClear.5 mph25%30.21 "Hg10 mi
9:30 PM61 °FClear.9 mph22%30.21 "Hg10 mi
8:30 PM63 °FPassing clouds.9 mph19%30.18 "HgN/A
7:30 PM68 °FClear.12 mph10%30.15 "Hg10 mi
6:30 PM70 °FPassing clouds.12 mph11%30.15 "HgN/A
6:00 PM72 °FPassing clouds.12 mph12%30.12 "HgN/A
5:30 PM72 °FScattered clouds.14 mph13%30.12 "HgN/A
5:00 PM73 °FScattered clouds.18 mph13%30.12 "HgN/A
4:30 PM75 °FScattered clouds.18 mph14%30.12 "HgN/A
4:00 PM77 °FScattered clouds.18 mph13%30.09 "HgN/A
3:30 PM79 °FScattered clouds.14 mph13%30.09 "HgN/A
3:00 PM79 °FScattered clouds.12 mph13%30.09 "HgN/A
2:30 PM77 °FScattered clouds.12 mph14%30.12 "HgN/A
1:30 PM77 °FScattered clouds.18 mph14%30.12 "HgN/A
12:30 PM77 °FScattered clouds.16 mph17%30.15 "HgN/A
11:30 AM73 °FScattered clouds.16 mph19%30.18 "HgN/A
11:00 AM73 °FScattered clouds.18 mph19%30.21 "HgN/A
10:30 AM73 °FPassing clouds.14 mph20%30.21 "HgN/A
9:30 AM72 °FPassing clouds.16 mph23%30.21 "HgN/A
9:00 AM73 °FPassing clouds.14 mph23%30.24 "HgN/A
8:30 AM72 °FPassing clouds.14 mph23%30.21 "HgN/A
7:30 AM59 °FPassing clouds.9 mph34%30.21 "HgN/A
6:30 AM54 °FPassing clouds.7 mph41%30.21 "HgN/A
Weather by CustomWeather, © 2014

See weather overviewHow to use our weather pages